Location: Marstown
(39.5056°N, 77.0820°W)
Time: 04:45:53
(UTC-04:00)

ISS - Visible Passes

Search period start: 24 April 2018 00:00
Search period end: 04 May 2018 00:00
Orbit: 403 x 406 km, 51.6° (Epoch: 24 April)

Date Brightness Start Highest point End Pass type
(mag) Time Alt. Az. Time Alt. Az. Time Alt. Az.
29 Apr -1.3 05:38:02 10° S 05:40:17 17° SE 05:42:32 10° E visible
01 May -2.9 05:28:47 10° SSW 05:31:53 43° SE 05:35:01 10° ENE visible
02 May -1.9 04:38:16 17° SSE 04:39:41 22° SE 04:42:17 10° E visible
03 May -1.0 03:48:05 11° ESE 03:48:05 11° ESE 03:48:36 10° ESE visible
03 May -3.8 05:20:44 13° WSW 05:23:35 71° NW 05:26:52 10° NE visible
